Regional Weather Roundup
Issued by NWS Sterling, VA

Home | Current Version | Previous Version | Graphics & Text | Print | Product List | Glossary On
Versions: 1 2 3 4 5 6 7 8 9 10 11 12 13 14 15 16 17 18 19 20 21 22 23 24 25 26 27
000
ASUS41 KLWX 040210
RWRLWX

REGIONAL WEATHER ROUNDUP
NATIONAL WEATHER SERVICE BALTIMORE MD/WASHINGTON DC
1000 PM EDT TUE MAY 03 2016

Note: "FAIR" indicates few or no clouds below 12,000 feet
with no significant weather and/or obstructions to visibility.
 TC=TEMPERATURE CELSIUS

 * =Non NWS site. Station does not report precipitation (e.g. rain,
    snow, etc.), thunder, or fog.

DCZ001-MDZ009-015-VAZ040>042-051-053>054-040300-
WASHINGTON METRO

CITY           SKY/WX    TMP DP  RH WIND       PRES   REMARKS
WASHINGTON NAT CLOUDY    60  55  83 E9        29.77F
DULLES         CLOUDY    60  57  89 NE7       29.78R
ANDREWS AFB    CLOUDY    58  55  91 E7        29.76F
FT BELVOIR     CLOUDY    60  56  86 NE2       29.76F
QUANTICO       MOCLDY    61  57  87 E10       29.76F
COLLEGE PARK*  CLOUDY    59  54  82 E5        29.77F
LEESBURG*      LGT RAIN  61  61 100 E5        29.80R
MANASSAS*      MOCLDY    63  63 100 E3        29.77R
GAITHERSBURG*  CLOUDY    57  52  82 NE3       29.82S

$$

MDZ006>007-011-014-040300-
BALTIMORE METRO

CITY           SKY/WX    TMP DP  RH WIND       PRES   REMARKS
BWI AIRPORT    CLOUDY    58  53  84 E13       29.78S
MD SCIENCE CTR   N/A     59  52  77 MISG      29.79S
MARTIN STATE   CLOUDY    59  55  88 E7        29.81R
ANNAPOLIS      CLOUDY    58  54  86 NE8       29.78R
FORT MEADE*    CLOUDY    57  52  82 E7        29.80F

$$

MDZ012-015-019>023-040300-
MARYLAND EASTERN SHORE

CITY           SKY/WX    TMP DP  RH WIND       PRES   REMARKS
OCEAN CITY     CLOUDY    51  51 100 NE12      29.79F
SALISBURY      CLOUDY    54  53  97 E13       29.75F
CAMBRIDGE*     CLOUDY    55  55 100 E8        29.76R

$$

MDZ017>025-040300-
SOUTHERN MARYLAND

CITY           SKY/WX    TMP DP  RH WIND       PRES   REMARKS
PATUXENT RIVER CLOUDY    61  58  90 E7        29.76R
ST INIGOES     CLOUDY    61  59  93 E9        29.74R
LEONARDTOWN*   CLOUDY    59  57  94 CALM      29.77S

$$

MDZ003>005-040300-
NORTH CENTRAL MARYLAND

CITY           SKY/WX    TMP DP  RH WIND       PRES   REMARKS
FREDERICK*     LGT RAIN  59  59 100 N5        29.82R
HAGERSTOWN APT LGT RAIN  59  56  89 E3        29.78S FOG
WESTMINSTER*   DRIZZLE   57  54  88 SE5       29.80R

$$

MDZ501>502-040300-
WESTERN MARYLAND

CITY           SKY/WX    TMP DP  RH WIND       PRES   REMARKS
OAKLAND*       PTCLDY    45  45 100 W8        29.83F
CUMBERLAND*    CLOUDY    61  45  55 W5        29.85R

$$

VAZ025>031-040300-
SHENANDOAH VALLEY

CITY           SKY/WX    TMP DP  RH WIND       PRES   REMARKS
WINCHESTER*    CLOUDY    61  59  94 CALM      29.78S
FRONT ROYAL*   CLOUDY    59  59 100 CALM      29.78R
LURAY*         RAIN      59  59 100 CALM      29.81R
NEW MARKET*    CLOUDY    60  57  92 CALM      29.80R
STAUNTON*      MOCLDY    62  60  93 N3        29.81R
WAYNESBORO*    CLOUDY    61  57  87 CALM      29.79S

$$

WVZ021-048>050-054>055-040300-
EASTERN WEST VIRGINIA PANHANDLE

CITY           SKY/WX    TMP DP  RH WIND       PRES   REMARKS
MARTINSBURG    CLOUDY    60  58  92 NE5       29.78R FOG
PETERSBURG*    CLOUDY    59  56  92 CALM      29.82S

$$

VAZ036>039-050-040300-
CENTRAL FOOTHILLS

CITY           SKY/WX    TMP DP  RH WIND       PRES   REMARKS
CHARLOTTESVILL MOCLDY    61  59  93 CALM      29.77R
CULPEPER*      CLOUDY    63  62  97 S3        29.78R
ORANGE*        CLOUDY    61  61 100 CALM      29.78F
GORDONSVILLE*  MOCLDY    60  60  99 CALM      29.77S
WARRENTON*     CLOUDY    62  56  82 E3        29.77R

$$

VAZ055>057-040300-
NORTH AND CENTRAL PIEDMONT

CITY           SKY/WX    TMP DP  RH WIND       PRES   REMARKS
FREDERICKSBRG* NOT AVBL
STAFFORD*      TSTM      59  57  92 E3        29.80R

$$

NCZ024-NYZ072-PAZ021-071-VAZ022-071-040300-
OTHER REGIONAL OBSERVATIONS

CITY           SKY/WX    TMP DP  RH WIND       PRES   REMARKS
NEW YORK CITY  CLOUDY    52  49  89 E3        29.87S
PHILADELPHIA   CLOUDY    54  49  83 NE7       29.83S
PITTSBURGH     CLOUDY    57  41  55 W5        29.81R
ROANOKE        FAIR      62  49  62 N6        29.82R
RICHMOND       FAIR      60  58  92 SE6       29.75R
RALEIGH        TSTM      65  63  93 N3        29.76S

$$

ANZ530>537-040300-
MARINE OBSERVATIONS

STATION/POSITION TIME  TEMP    WIND        PRES
                       AIR SEA DIR/SP/G
                 (UTC) (F)     (DEG/KT/KT) (MB)
THOMAS PT LIGHT  0200   58 59   60/ 13/ 14 1009.7R
BALT KEY BRIDGE  0100   58                 1008.7R
COVE POINT       0100   60                 1007.9R
LEWISETTA        0100   62 63              1006.8F
SOLOMONS ISLAND  0100   61 61                N/A
PINEY POINT      0100          130/ 12/ 13   N/A

$$





USA.gov is the U.S. government's official web portal to all federal, state and local government web resources and services.